Meteo Giornale » Osservazioni meteo El Salvador » El Salvador Intl-Comalapa

ore: 21:00 - Osservazioni Meteo El Salvador Intl-Comalapa
Lat. 13° 26' N Lon. 89° 3' W Alt. 25 metri s.l.m.

poco_nuvoloso

24 °C

Poco Nuvoloso

Temp. 24 Ore

24 °C

36 °C

Est/Sud-Est

7.4 Km/h

Dew point 24 °C

Umidità 100 %

Visibilità  10 Km

Il sole sorge alle ore 05:44

Il sole tramonta alle ore 18:08

Data e Ora Cielo e Fenomeni T °C DP °C Um. % Pres. hPa Vis. km Vento km/h
Oggi h: 21:00 poco_nuvoloso Poco Nuvoloso 24 24 100 1012 10 E/SE 7.4
Oggi h: 20:00 nuvoloso_temporali Temporale nelle vicinanze 24 23 94 1011 10 N 5.5
Oggi h: 19:16 nuvoloso_temporali Temporale 25 23 88 1010 10 N/NO 11.1
Oggi h: 19:00 nuvoloso_temporali Temporale 24 23 94 1010 4 NO 22.2
Oggi h: 18:49 nuvoloso_temporali Temporale 25 23 88 1012 3 N 7.4
Oggi h: 18:40 nuvoloso_temporali Temporale 25 23 88 1011 7 NO 14.8
Oggi h: 18:09 nuvoloso_temporali Temporale 25 22 83 1010 3 N 35.2
Oggi h: 18:00 nuvoloso_temporali Temporale 31 25 70 1011 3 N 16.7
Oggi h: 17:51 nuvoloso_temporali Temporale 31 25 70 1010 3 NO 11.1
Oggi h: 17:45 nuvoloso_temporali Temporale 31 25 70 1010 5 O/NO 13
Oggi h: 17:40 nuvoloso_temporali Temporale 31 25 70 1009 8 O/NO 14.8
Oggi h: 17:00 poco_nuvoloso Poco Nuvoloso 33 25 62 1009 10 O/SO 16.7
Oggi h: 16:50 poco_nuvoloso Poco Nuvoloso 33 25 62 1009 10 O/SO 16.7
Oggi h: 16:00 poco_nuvoloso Poco Nuvoloso 33 25 62 1008 10 O/SO 16.7
Oggi h: 15:50 poco_nuvoloso Poco Nuvoloso 33 25 62 1008 10 O/SO 16.7
Oggi h: 15:00 poco_nuvoloso Poco Nuvoloso 33 25 62 1008 10 SO 16.7
Oggi h: 14:50 poco_nuvoloso Poco Nuvoloso 33 25 62 1008 10 SO 16.7
Oggi h: 14:00 poco_nuvoloso Poco Nuvoloso 34 25 59 1009 10 O/SO 18.5
Oggi h: 13:50 poco_nuvoloso Poco Nuvoloso 34 25 59 1009 10 O/SO 18.5
Oggi h: 13:00 poco_nuvoloso Poco Nuvoloso 35 24 53 1010 10 SO 16.7
Oggi h: 12:50 poco_nuvoloso Poco Nuvoloso 35 24 53 1010 10 SO 16.7
Oggi h: 12:00 poco_nuvoloso Poco Nuvoloso 35 24 53 1010 10 SO 14.8
Oggi h: 11:50 poco_nuvoloso Poco Nuvoloso 35 24 53 1010 10 SO 14.8
Oggi h: 11:00 poco_nuvoloso Poco Nuvoloso 36 22 44 1011 10 NO 9.3
Oggi h: 10:50 poco_nuvoloso Poco Nuvoloso 36 22 44 1011 10 NO 9.3
Oggi h: 10:00 sereno Sereno 35 22 47 1011 10 N 13
Oggi h: 09:50 sereno Sereno 35 22 47 1011 10 N 13
Oggi h: 09:00 sereno Sereno 34 22 49 1012 10 N/NE 14.8
Oggi h: 08:50 sereno Sereno 34 22 49 1012 10 N/NE 14.8
Oggi h: 08:00 sereno Sereno 32 22 55 1011 10 N/NE 11.1
Oggi h: 07:50 sereno Sereno 32 22 55 1011 10 N/NE 11.1
Oggi h: 07:38 sereno Sereno 31 22 58 1011 10 N/NE 11.1
Oggi h: 07:00 sereno Sereno 29 22 66 1011 10 N/NE 9.3
Oggi h: 06:50 sereno Sereno 29 22 66 1011 10 N/NE 11.1
Oggi h: 06:18 sereno Sereno 28 22 69 1011 10 N/NE 11.1
Oggi h: 06:00 sereno Sereno 26 22 78 1010 10 NE 11.1
Oggi h: 05:50 sereno Sereno 26 22 78 1010 10 NE 11.1
Oggi h: 05:00 poco_nuvoloso Poco Nuvoloso 27 22 74 1010 10 N 3.7
Oggi h: 04:00 nuvoloso Nuvoloso 26 24 88 1010 10 N 5.5
Oggi h: 03:00 nuvoloso Nuvoloso 27 25 88 1011 10 N 3.7
Oggi h: 02:00 nuvoloso Nuvoloso 27 25 88 1011 10 N 1.8
Oggi h: 01:00 nuvoloso Nuvoloso 27 25 88 1011 10 N 1.8
Oggi h: 00:00 poco_nuvoloso Poco Nuvoloso 27 24 83 1012 10 N 5.5
Ieri h: 23:00 nuvoloso Nuvoloso 28 25 83 1013 10 O 9.3
Ieri h: 22:29 nuvoloso_temporali Temporale nelle vicinanze 29 26 83 1013 10 O 11.1
Ieri h: 22:00 nuvoloso_temporali Temporale 30 26 79 1013 5 N/NO 7.4
Ieri h: 21:31 nuvoloso_piovaschi Pioggia 29 26 83 1012 5 N 1.8